SL-14 R/B (14820 NORAD) Tracking and Keplerian Element Data

This shows tracking and keplerian element data for the satellite.

Feedback or suggestion? Click here.




ElementValue
Catalog14820
NameSL-14 R/B
Epoch Orbit20956
Epoch Day35.12062983
Epoch Year2025
RAAN258.6322
Inclination82.5395
Eccentricity0.0017319
Argument of Perigee209.3423
Mean Anonmoly150.6822
Mean Motion14.85403519
Decay Rate8.47E-06
L11 14820U 84027B 25035.12062983 .00000847 00000+0 95396-4 0 9996
L22 14820 82.5395 258.6322 0017319 209.3423 150.6822 14.85403519209567



Live tracking and technical data element details for SL-14 R/B (NORAD 14820). SL-14 R/B can be tracked NOW for your location showing map with azimuth and elevation plus other details from your city location.







IsCatalogInMostPopularTable: catalog: 14820, numindb: 325
Update: records affected: 1



GetName: 14820 SL-14 R/B

Hit Count: updated at: Thu, 15 May 2025 11:00:17 GMT